[[{"header":{"parameterUnit":"m.s-1","parameterCategory":1,"la1":30.2991,"la2":30.254,"lo1":-89.0895,"lo2":-89.0444,"dy":0.0017,"dx":0.0017,"nx":28,"ny":28,"refTime":"2025-11-26T03:00:00:Z","depth":0,"parameterNumber":2,"parameterNumberName":"U-component_of_WINDS"},"data":[0,0,0,0,0,0,0,0,0,0,0,0,0,0,0,0,0,0,0,0,0,0,0,0,0,0,0,0,0,0,0,0,0,0,0,0,0,0,0,0,0,0,0,0,0,0,0,0,0,0,0,0,0,0,0,0,0,0,0.1301,0.1301,0,0.1256,0.1256,0.1255,0.1265,0.1266,0.1266,0.1267,0.1217,0.1215,0.1213,0,0,0,0,0,0,0,0,0,0,0,0,0,0.1391,0.139,0.1301,0.1301,0.13,0.1257,0.1256,0.1255,0.1265,0.1266,0.1267,0.1268,0.1218,0.1216,0.1213,0,0,0,0,0,0,0,0,0,0,0,0,0,0.135,0.1389,0.1301,0.13,0.1299,0.1257,0.1256,0.1255,0.1264,0.1266,0.1267,0.1268,0.1219,0.1216,0.1213,0.1168,0,0,0.1203,0.1202,0,0,0,0,0,0,0,0,0.1352,0.1347,0.13,0.13,0.1299,0.1268,0.127,0.1226,0.1264,0.1277,0.1267,0.1269,0.1233,0.1229,0.1217,0.1166,0.1164,0.1203,0.1201,0.12,0.1199,0,0,0,0,0,0,0,0.1355,0.1349,0.1283,0.13,0.1299,0.13,0.1296,0.1261,0.1248,0.1276,0.1277,0.1272,0.1233,0.122,0.1216,0.1163,0.1203,0.12,0.1198,0.1197,0.1073,0.1071,0,0,0,0,0,0,0.1359,0.1351,0.1285,0.1282,0.1329,0.1297,0.1292,0.1276,0.1249,0.1246,0.1271,0.1272,0.1225,0.122,0.1215,0.116,0.12,0.1197,0.1195,0.1074,0.1072,0.1071,0,0,0,0,0,0,0.1361,0.1353,0.1287,0.1317,0.1308,0.1295,0.1276,0.1275,0.1262,0.1245,0.1242,0.1261,0.1226,0.1219,0.118,0.1158,0.1195,0.1192,0.1076,0.1074,0.1072,0.1051,0,0,0,0,0,0,0.1364,0.1354,0.1337,0.1316,0.1307,0.1253,0.1275,0.1273,0.1257,0.1259,0.1235,0.1232,0.1226,0.1185,0.1177,0.1155,0.119,0.1078,0.1075,0.1072,0.1053,0.1048,0.1044,0,0,0,0,0,0.1367,0.1332,0.1336,0.1328,0.1286,0.1252,0.1247,0.1242,0.1256,0.1238,0.1227,0.1232,0.1163,0.1181,0.1172,0.1148,0.1079,0.1076,0.1072,0.1056,0.1049,0.1044,0,0,0,0,0,0,0.1349,0.1329,0.1334,0.1292,0.1274,0.1254,0.1232,0.1236,0.1213,0.1215,0.121,0.1204,0.1164,0.1153,0.1173,0.1104,0.1122,0.1117,0.1113,0.1107,0.1102,0.1105,0.1187,0,0,0,0,0,0.1341,0.1316,0.13,0.1264,0.1255,0.1245,0.123,0.1229,0.121,0.1202,0.1187,0.1167,0.1141,0.1124,0.1098,0.1053,0.1047,0.1033,0.1028,0.1024,0.1019,0.0994,0.0987,0.106,0.1061,0.1061,0,0,0.1322,0.1309,0.1293,0.126,0.1246,0.122,0.1239,0.121,0.119,0.1197,0.1159,0.1148,0.1126,0.1083,0.1064,0.1072,0.0998,0.102,0.1017,0.1014,0.099,0.0983,0.0977,0.1058,0.1059,0.1059,0,0,0.1275,0.1263,0.1231,0.1218,0.1197,0.1191,0.1184,0.1163,0.1157,0.112,0.1124,0.11,0.1055,0.1039,0.1024,0.0973,0.0977,0.0965,0.094,0.0915,0.0909,0.0904,0.0885,0.0878,0.0961,0.0961,0.0961,0,0.1254,0.1215,0.1214,0.1186,0.1171,0.1178,0.1146,0.1132,0.1104,0.1093,0.1104,0.1048,0.1033,0.0987,0.0974,0.0963,0.0954,0.0967,0.0911,0.0905,0.09,0.0882,0.0874,0.0959,0.0959,0.096,0.096,0,0.119,0.1164,0.1141,0.1115,0.1098,0.1067,0.1061,0.1044,0.1045,0.1037,0.0999,0.0982,0.0954,0.0943,0.0943,0.0897,0.0903,0.0912,0.093,0.0892,0.0874,0.0867,0.0957,0.0958,0.0958,0.0959,0,0,0.1128,0.1104,0.1095,0.1083,0.1062,0.1041,0.1011,0.0985,0.0969,0.095,0.0924,0.0887,0.0896,0.088,0.0878,0.0857,0.0816,0.0869,0.0868,0.0858,0.0763,0.0755,0.0747,0.082,0.0818,0.0817,0.0765,0,0.1077,0.1025,0.1025,0.0977,0.0952,0.0959,0.0933,0.0917,0.091,0.0887,0.0878,0.0852,0.0866,0.0856,0.0836,0.0825,0.0797,0.0829,0.0793,0.0792,0.0797,0.0738,0.0728,0.0679,0.0758,0.0757,0.0756,0,0.1011,0.0991,0.0941,0.0924,0.0913,0.089,0.0866,0.0845,0.0826,0.0822,0.0806,0.0808,0.0776,0.0797,0.0753,0.0776,0.0761,0.0754,0.0752,0.0747,0.077,0.0729,0.0664,0.0656,0.0745,0.0746,0.0747,0,0.0968,0.0929,0.0894,0.0885,0.0864,0.0847,0.0838,0.0821,0.0806,0.0785,0.0775,0.075,0.0736,0.0716,0.0711,0.0727,0.0667,0.0688,0.0662,0.0662,0.0646,0.0647,0.0576,0.0641,0.0641,0.0641,0.0641,0,0.0911,0.0879,0.0875,0.0853,0.0819,0.0818,0.0783,0.0775,0.076,0.0736,0.0742,0.0719,0.0715,0.0691,0.0687,0.0651,0.0645,0.064,0.0639,0.0638,0.0638,0.0627,0.0629,0.0639,0.0639,0.064,0.064,0,0.0856,0.0853,0.0815,0.08,0.0795,0.077,0.0756,0.0735,0.073,0.0699,0.0692,0.0683,0.0655,0.0649,0.0616,0.0613,0.057,0.0573,0.0576,0.0576,0.0549,0.0551,0.0467,0.0455,0.0529,0.0528,0.0528,0,0.0819,0.0795,0.0778,0.0763,0.0753,0.0729,0.0714,0.0713,0.0697,0.0675,0.0656,0.063,0.0608,0.0564,0.0553,0.0528,0.0529,0.0502,0.0525,0.0525,0.0527,0.0527,0.0524,0.0496,0.0495,0.0495,0.0494,0,0.0752,0.0752,0.073,0.0708,0.0691,0.0673,0.0656,0.0643,0.064,0.0622,0.0594,0.0578,0.0545,0.0518,0.0493,0.0482,0.0487,0.0487,0.048,0.0477,0.048,0.0477,0.0562,0.0488,0.0489,0.0489,0.049,0.049,0.0703,0.0683,0.0668,0.0644,0.0632,0.0616,0.0596,0.0589,0.0566,0.054,0.0541,0.0511,0.0494,0.0461,0.0449,0.0425,0.0433,0.0423,0.0419,0.0416,0.0413,0.0486,0.0421,0.0421,0.0421,0.0421,0.0421,0,0.0636,0.0627,0.0605,0.0582,0.0564,0.0573,0.0555,0.0538,0.0512,0.0496,0.0476,0.0444,0.0419,0.0407,0.0382,0.0365,0.0366,0.0358,0.0358,0.0355,0.0408,0.0416,0.0357,0.0357,0.0357,0.0357,0.0357,0.0357,0.0598,0.0563,0.0562,0.0521,0.0512,0.0484,0.0473,0.0459,0.0446,0.0411,0.0391,0.0384,0.037,0.0344,0.0321,0.0318,0.0308,0.0298,0.0296,0.0345,0.0351,0.0357,0.0365,0.0296,0.0296,0.0245,0.0244,0.0244]},{"header":{"parameterUnit":"m.s-1","parameterCategory":1,"la1":30.2991,"la2":30.254,"lo1":-89.0895,"lo2":-89.0444,"dy":0.0017,"dx":0.0017,"nx":28,"ny":28,"refTime":"2025-11-26T03:00:00:Z","depth":0,"parameterNumber":3,"parameterNumberName":"V-component_of_WINDS"},"data":[0,0,0,0,0,0,0,0,0,0,0,0,0,0,0,0,0,0,0,0,0,0,0,0,0,0,0,0,0,0,0,0,0,0,0,0,0,0,0,0,0,0,0,0,0,0,0,0,0,0,0,0,0,0,0,0,0,0,-7.0276,-7.0276,0,-7.0356,-7.0357,-7.0358,-7.0243,-7.0239,-7.0235,-7.0231,-7.0308,-7.0313,-7.0319,0,0,0,0,0,0,0,0,0,0,0,0,0,-7.0017,-7.0023,-7.0275,-7.0277,-7.0278,-7.0356,-7.0357,-7.0358,-7.0243,-7.0238,-7.0234,-7.0229,-7.0306,-7.0313,-7.032,0,0,0,0,0,0,0,0,0,0,0,0,0,-7.0117,-7.0025,-7.0275,-7.023,-7.0227,-7.0355,-7.0357,-7.0358,-7.0244,-7.0238,-7.0232,-7.0227,-7.0303,-7.0312,-7.0321,-7.0496,0,0,-7.0347,-7.0351,0,0,0,0,0,0,0,0,-7.0111,-7.0126,-7.0236,-7.0233,-7.023,-7.0283,-7.0294,-7.0404,-7.0246,-7.0238,-7.0231,-7.0224,-7.0304,-7.0312,-7.0341,-7.0499,-7.0503,-7.0348,-7.0353,-7.0357,-7.0359,0,0,0,0,0,0,0,-7.0105,-7.0122,-7.0307,-7.0237,-7.0234,-7.0204,-7.0211,-7.0314,-7.0304,-7.0238,-7.023,-7.0241,-7.0301,-7.0332,-7.0341,-7.0504,-7.0348,-7.0355,-7.0361,-7.0364,-7.081,-7.0816,0,0,0,0,0,0,-7.0104,-7.0117,-7.0304,-7.0309,-7.0155,-7.0213,-7.0222,-7.0272,-7.0302,-7.0301,-7.0246,-7.0235,-7.032,-7.0331,-7.0344,-7.0551,-7.0357,-7.0365,-7.037,-7.0803,-7.0811,-7.0819,0,0,0,0,0,0,-7.0099,-7.0122,-7.0301,-7.0211,-7.0232,-7.0224,-7.0282,-7.0277,-7.0308,-7.0309,-7.0306,-7.028,-7.0316,-7.0331,-7.0459,-7.0552,-7.0369,-7.0377,-7.0796,-7.0806,-7.0815,-7.0967,0,0,0,0,0,0,-7.0092,-7.0121,-7.0188,-7.0214,-7.0237,-7.0418,-7.0288,-7.0283,-7.0324,-7.0311,-7.034,-7.0339,-7.0313,-7.0447,-7.0468,-7.0561,-7.0384,-7.0787,-7.08,-7.0812,-7.0954,-7.0981,-7.1004,0,0,0,0,0,-7.0083,-7.0227,-7.0193,-7.0216,-7.0322,-7.0423,-7.0436,-7.0405,-7.0332,-7.0399,-7.04,-7.0338,-7.0539,-7.0461,-7.0484,-7.0581,-7.0781,-7.0796,-7.0811,-7.0942,-7.0976,-7.1004,0,0,0,0,0,0,-7.0211,-7.0229,-7.0191,-7.0348,-7.0385,-7.0404,-7.0488,-7.0441,-7.0498,-7.0483,-7.0439,-7.0447,-7.0584,-7.0594,-7.0508,-7.0751,-7.0647,-7.0668,-7.074,-7.0771,-7.0796,-7.0791,-7.0391,0,0,0,0,0,-7.0257,-7.034,-7.0351,-7.0488,-7.0509,-7.0496,-7.0538,-7.0511,-7.0546,-7.0561,-7.057,-7.0606,-7.0677,-7.0724,-7.079,-7.0955,-7.0959,-7.1032,-7.1058,-7.1078,-7.1096,-7.1184,-7.1217,-7.0867,-7.0867,-7.0867,0,0,-7.0354,-7.0374,-7.0429,-7.0514,-7.054,-7.0624,-7.0509,-7.0603,-7.0665,-7.0574,-7.0696,-7.0705,-7.0741,-7.0889,-7.0954,-7.0902,-7.1194,-7.1097,-7.1114,-7.112,-7.1203,-7.1236,-7.1265,-7.0877,-7.0876,-7.0874,0,0,-7.0574,-7.0598,-7.0715,-7.0743,-7.0784,-7.0774,-7.0803,-7.0829,-7.0831,-7.0953,-7.0887,-7.0959,-7.1082,-7.1111,-7.1142,-7.1373,-7.1318,-7.1395,-7.1527,-7.1613,-7.1641,-7.1665,-7.1747,-7.1778,-7.1413,-7.1413,-7.1414,0,-7.0688,-7.0815,-7.078,-7.088,-7.0919,-7.0843,-7.096,-7.0989,-7.1048,-7.1076,-7.1017,-7.1171,-7.119,-7.1343,-7.1399,-7.1427,-7.1457,-7.1392,-7.164,-7.1664,-7.1686,-7.1764,-7.1795,-7.1422,-7.1421,-7.142,-7.142,0,-7.0954,-7.1043,-7.1132,-7.1194,-7.1243,-7.1351,-7.1331,-7.1384,-7.1353,-7.1349,-7.1473,-7.1494,-7.1562,-7.1596,-7.1565,-7.1745,-7.1711,-7.1647,-7.1542,-7.1729,-7.1802,-7.1831,-7.1436,-7.1432,-7.143,-7.1427,0,0,-7.1256,-7.1298,-7.1332,-7.1359,-7.1398,-7.1465,-7.1569,-7.1638,-7.1684,-7.1727,-7.1813,-7.1919,-7.186,-7.1895,-7.1867,-7.1943,-7.2124,-7.1869,-7.1869,-7.1916,-7.2323,-7.2372,-7.2407,-7.2088,-7.2094,-7.2098,-7.232,0,-7.1476,-7.1658,-7.163,-7.1805,-7.1886,-7.1815,-7.1905,-7.1938,-7.1937,-7.2004,-7.2002,-7.2078,-7.1995,-7.2016,-7.2087,-7.2087,-7.2206,-7.2071,-7.2166,-7.217,-7.216,-7.2445,-7.2496,-7.2705,-7.2348,-7.2353,-7.2356,0,-7.1756,-7.1813,-7.1997,-7.2024,-7.2057,-7.2139,-7.2199,-7.2265,-7.2301,-7.2294,-7.2335,-7.2292,-7.2394,-7.2287,-7.2427,-7.2336,-7.2373,-7.2378,-7.2386,-7.2393,-7.2275,-7.246,-7.277,-7.2802,-7.2401,-7.2397,-7.2394,0,-7.1959,-7.208,-7.2206,-7.2231,-7.2266,-7.2325,-7.2342,-7.2372,-7.2415,-7.2467,-7.2494,-7.2557,-7.2592,-7.264,-7.2615,-7.254,-7.2759,-7.265,-7.2756,-7.2757,-7.2805,-7.2803,-7.3126,-7.283,-7.2829,-7.2828,-7.2828,0,-7.2207,-7.2322,-7.2297,-7.2375,-7.2502,-7.2467,-7.2593,-7.2601,-7.2628,-7.2704,-7.2645,-7.2718,-7.2681,-7.275,-7.2731,-7.2849,-7.2865,-7.2861,-7.2855,-7.2867,-7.2868,-7.2891,-7.2876,-7.2837,-7.2835,-7.2833,-7.2832,0,-7.2455,-7.2443,-7.2575,-7.2598,-7.2606,-7.2699,-7.2717,-7.2788,-7.2783,-7.2881,-7.2901,-7.2892,-7.2971,-7.2951,-7.3036,-7.3023,-7.3172,-7.3147,-7.3161,-7.3155,-7.3262,-7.3253,-7.3612,-7.3657,-7.3331,-7.3334,-7.3337,0,-7.2614,-7.2702,-7.2734,-7.2783,-7.2805,-7.2882,-7.2927,-7.2896,-7.2944,-7.2991,-7.3057,-7.3131,-7.3188,-7.3317,-7.3316,-7.3381,-7.3357,-7.3479,-7.3366,-7.3376,-7.3359,-7.3354,-7.3363,-7.3501,-7.3505,-7.3508,-7.351,0,-7.2899,-7.2889,-7.2956,-7.3022,-7.3077,-7.3126,-7.317,-7.3212,-7.3184,-7.3241,-7.3322,-7.3367,-7.3454,-7.3528,-7.3587,-7.3602,-7.3552,-7.3546,-7.3574,-7.3587,-7.3592,-7.3591,-7.3222,-7.3538,-7.3535,-7.3533,-7.3531,-7.353,-7.3107,-7.3181,-7.3217,-7.3293,-7.3324,-7.3366,-7.3435,-7.3439,-7.3506,-7.3577,-7.3553,-7.3646,-7.3678,-7.3753,-7.3775,-7.3846,-7.3799,-7.384,-7.385,-7.3861,-7.3874,-7.3581,-7.3856,-7.3855,-7.3855,-7.3854,-7.3853,0,-7.3388,-7.3408,-7.3479,-7.3543,-7.3603,-7.3553,-7.3598,-7.3651,-7.3734,-7.377,-7.3828,-7.3921,-7.3992,-7.3998,-7.4064,-7.4119,-7.4098,-7.4138,-7.4133,-7.4138,-7.3912,-7.3881,-7.4154,-7.4154,-7.4154,-7.4154,-7.4154,-7.4154,-7.3542,-7.3666,-7.366,-7.3797,-7.3815,-7.3907,-7.3937,-7.3975,-7.4004,-7.4111,-7.417,-7.4174,-7.4198,-7.4265,-7.4328,-7.4327,-7.4355,-7.4404,-7.4395,-7.4183,-7.4154,-7.4125,-7.4096,-7.441,-7.441,-7.4615,-7.4617,-7.4618]}]]